Year,Month,Day,Hour,Minute,Value (Times are PST for temperature in C)
2009,05,28,00,00,10.70
2009,05,28,00,01,10.70
2009,05,28,00,02,10.60
2009,05,28,00,03,10.60
2009,05,28,00,04,10.60
2009,05,28,00,05,10.60
2009,05,28,00,06,10.60
2009,05,28,00,07,10.60
2009,05,28,00,08,10.60
2009,05,28,00,09,10.60
2009,05,28,00,10,10.60
2009,05,28,00,11,10.60
2009,05,28,00,12,10.60
2009,05,28,00,13,10.60
2009,05,28,00,14,10.60
2009,05,28,00,15,10.60
2009,05,28,00,16,10.60
2009,05,28,00,17,10.40
2009,05,28,00,18,10.40
2009,05,28,00,19,10.40
2009,05,28,00,20,10.40
2009,05,28,00,21,10.40
2009,05,28,00,22,10.30
2009,05,28,00,23,10.30
2009,05,28,00,24,10.30
2009,05,28,00,25,10.30
2009,05,28,00,26,10.20
2009,05,28,00,27,10.20
2009,05,28,00,28,10.20
2009,05,28,00,29,10.20
2009,05,28,00,30,10.20
2009,05,28,00,31,10.20
2009,05,28,00,32,10.20
2009,05,28,00,33,10.20
2009,05,28,00,34,10.20
2009,05,28,00,35,10.20
2009,05,28,00,36,10.20
2009,05,28,00,37,10.20
2009,05,28,00,38,10.20
2009,05,28,00,39,10.20
2009,05,28,00,40,10.20
2009,05,28,00,41,10.20
2009,05,28,00,42,10.20
2009,05,28,00,43,10.20
2009,05,28,00,44,10.20
2009,05,28,00,45,10.20
2009,05,28,00,46,10.20
2009,05,28,00,47,10.10
2009,05,28,00,48,10.10
2009,05,28,00,49,10.10
2009,05,28,00,50,10.10
2009,05,28,00,51,10.10
2009,05,28,00,52,10.10
2009,05,28,00,53,10.10
2009,05,28,00,54,10.10
2009,05,28,00,55,9.90
2009,05,28,00,56,9.90
2009,05,28,00,57,9.90
2009,05,28,00,58,9.90
2009,05,28,00,59,9.90
2009,05,28,01,00,9.90
2009,05,28,01,01,9.90
2009,05,28,01,02,9.90
2009,05,28,01,03,9.80
2009,05,28,01,04,9.80
2009,05,28,01,05,9.80
2009,05,28,01,06,9.80
2009,05,28,01,07,9.80
2009,05,28,01,08,9.80
2009,05,28,01,09,9.80
2009,05,28,01,10,9.70
2009,05,28,01,11,9.70
2009,05,28,01,12,9.70
2009,05,28,01,13,9.70
2009,05,28,01,14,9.70
2009,05,28,01,15,9.70
2009,05,28,01,16,9.70
2009,05,28,01,17,9.70
2009,05,28,01,18,9.70
2009,05,28,01,19,9.70
2009,05,28,01,20,9.70
2009,05,28,01,21,9.70
2009,05,28,01,22,9.70
2009,05,28,01,23,9.70
2009,05,28,01,24,9.70
2009,05,28,01,25,9.70
2009,05,28,01,26,9.60
2009,05,28,01,27,9.60
2009,05,28,01,28,9.60
2009,05,28,01,29,9.60
2009,05,28,01,30,9.50
2009,05,28,01,31,9.50
2009,05,28,01,32,9.50
2009,05,28,01,33,9.50
2009,05,28,01,34,9.40
2009,05,28,01,35,9.40
2009,05,28,01,36,9.40
2009,05,28,01,37,9.40
2009,05,28,01,38,9.40
2009,05,28,01,39,9.30
2009,05,28,01,40,9.30
2009,05,28,01,41,9.30
2009,05,28,01,42,9.30
2009,05,28,01,43,9.30
2009,05,28,01,44,9.20
2009,05,28,01,45,9.20
2009,05,28,01,46,9.20
2009,05,28,01,47,9.20
2009,05,28,01,48,9.20
2009,05,28,01,49,9.20
2009,05,28,01,50,9.20
2009,05,28,01,51,9.10
2009,05,28,01,52,9.10
2009,05,28,01,53,9.10
2009,05,28,01,54,9.10
2009,05,28,01,55,9.00
2009,05,28,01,56,9.00
2009,05,28,01,57,9.00
2009,05,28,01,58,9.00
2009,05,28,01,59,9.00
2009,05,28,02,00,9.00
2009,05,28,02,01,8.90
2009,05,28,02,02,8.90
2009,05,28,02,03,8.90
2009,05,28,02,04,8.90
2009,05,28,02,05,8.80
2009,05,28,02,06,8.80
2009,05,28,02,07,8.70
2009,05,28,02,08,8.70
2009,05,28,02,09,8.70
2009,05,28,02,10,8.70
2009,05,28,02,11,8.70
2009,05,28,02,12,8.70
2009,05,28,02,13,8.70
2009,05,28,02,14,8.70
2009,05,28,02,15,8.70
2009,05,28,02,16,8.70
2009,05,28,02,17,8.70
2009,05,28,02,18,8.70
2009,05,28,02,19,8.70
2009,05,28,02,20,8.70
2009,05,28,02,21,8.70
2009,05,28,02,22,8.70
2009,05,28,02,23,8.70
2009,05,28,02,24,8.70
2009,05,28,02,25,8.70
2009,05,28,02,26,8.70
2009,05,28,02,27,8.70
2009,05,28,02,28,8.60
2009,05,28,02,29,8.60
2009,05,28,02,30,8.60
2009,05,28,02,31,8.60
2009,05,28,02,32,8.60
2009,05,28,02,33,8.60
2009,05,28,02,34,8.60
2009,05,28,02,35,8.70
2009,05,28,02,36,8.70
2009,05,28,02,37,8.70
2009,05,28,02,38,8.70
2009,05,28,02,39,8.70
2009,05,28,02,40,8.70
2009,05,28,02,41,8.60
2009,05,28,02,42,8.60
2009,05,28,02,43,8.60
2009,05,28,02,44,8.60
2009,05,28,02,45,8.60
2009,05,28,02,46,8.60
2009,05,28,02,47,8.60
2009,05,28,02,48,8.50
2009,05,28,02,49,8.50
2009,05,28,02,50,8.50
2009,05,28,02,51,8.50
2009,05,28,02,52,8.50
2009,05,28,02,53,8.50
2009,05,28,02,54,8.50
2009,05,28,02,55,8.50
2009,05,28,02,56,8.50
2009,05,28,02,57,8.50
2009,05,28,02,58,8.40
2009,05,28,02,59,8.40
2009,05,28,03,00,8.40
2009,05,28,03,01,8.40
2009,05,28,03,02,8.40
2009,05,28,03,03,8.40
2009,05,28,03,04,8.40
2009,05,28,03,05,8.40
2009,05,28,03,06,8.40
2009,05,28,03,07,8.40
2009,05,28,03,08,8.40
2009,05,28,03,09,8.40
2009,05,28,03,10,8.40
2009,05,28,03,11,8.40
2009,05,28,03,12,8.40
2009,05,28,03,13,8.40
2009,05,28,03,14,8.40
2009,05,28,03,15,8.50
2009,05,28,03,16,8.50
2009,05,28,03,17,8.50
2009,05,28,03,18,8.50
2009,05,28,03,19,8.50
2009,05,28,03,20,8.50
2009,05,28,03,21,8.50
2009,05,28,03,22,8.50
2009,05,28,03,23,8.50
2009,05,28,03,24,8.50
2009,05,28,03,25,8.40
2009,05,28,03,26,8.50
2009,05,28,03,27,8.50
2009,05,28,03,28,8.50
2009,05,28,03,29,8.50
2009,05,28,03,30,8.50
2009,05,28,03,31,8.50
2009,05,28,03,32,8.40
2009,05,28,03,33,8.50
2009,05,28,03,34,8.50
2009,05,28,03,35,8.50
2009,05,28,03,36,8.50
2009,05,28,03,37,8.50
2009,05,28,03,38,8.50
2009,05,28,03,39,8.40
2009,05,28,03,40,8.40
2009,05,28,03,41,8.40
2009,05,28,03,42,8.40
2009,05,28,03,43,8.40
2009,05,28,03,44,8.40
2009,05,28,03,45,8.40
2009,05,28,03,46,8.40
2009,05,28,03,47,8.40
2009,05,28,03,48,8.30
2009,05,28,03,49,8.30
2009,05,28,03,50,8.30
2009,05,28,03,51,8.30
2009,05,28,03,52,8.30
2009,05,28,03,53,8.30
2009,05,28,03,54,8.20
2009,05,28,03,55,8.20
2009,05,28,03,56,8.20
2009,05,28,03,57,8.20
2009,05,28,03,58,8.20
2009,05,28,03,59,8.10
2009,05,28,04,00,8.10
2009,05,28,04,01,8.00
2009,05,28,04,02,8.00
2009,05,28,04,03,8.10
2009,05,28,04,04,8.10
2009,05,28,04,05,8.10
2009,05,28,04,06,8.10
2009,05,28,04,07,8.10
2009,05,28,04,08,8.10
2009,05,28,04,09,8.10
2009,05,28,04,10,8.00
2009,05,28,04,11,8.00
2009,05,28,04,12,7.90
2009,05,28,04,13,7.90
2009,05,28,04,14,7.90
2009,05,28,04,15,7.90
2009,05,28,04,16,7.90
2009,05,28,04,17,7.90
2009,05,28,04,18,8.00
2009,05,28,04,19,8.00
2009,05,28,04,20,8.00
2009,05,28,04,21,8.10
2009,05,28,04,22,8.10
2009,05,28,04,23,8.10
2009,05,28,04,24,8.10
2009,05,28,04,25,8.10
2009,05,28,04,26,8.10
2009,05,28,04,27,8.00
2009,05,28,04,28,8.00
2009,05,28,04,29,8.00
2009,05,28,04,30,8.00
2009,05,28,04,31,8.00
2009,05,28,04,32,8.00
2009,05,28,04,33,7.90
2009,05,28,04,34,7.90
2009,05,28,04,35,7.90
2009,05,28,04,36,7.80
2009,05,28,04,37,7.80
2009,05,28,04,38,7.80
2009,05,28,04,39,7.80
2009,05,28,04,40,7.80
2009,05,28,04,41,7.80
2009,05,28,04,42,7.80
2009,05,28,04,43,7.80
2009,05,28,04,44,7.80
2009,05,28,04,45,7.80
2009,05,28,04,46,7.80
2009,05,28,04,47,7.70
2009,05,28,04,48,7.70
2009,05,28,04,49,7.70
2009,05,28,04,50,7.70
2009,05,28,04,51,7.70
2009,05,28,04,52,7.70
2009,05,28,04,53,7.70
2009,05,28,04,54,7.60
2009,05,28,04,55,7.60
2009,05,28,04,56,7.60
2009,05,28,04,57,7.60
2009,05,28,04,58,7.50
2009,05,28,04,59,7.50
2009,05,28,05,00,7.50
2009,05,28,05,01,7.40
2009,05,28,05,02,7.40
2009,05,28,05,03,7.40
2009,05,28,05,04,7.30
2009,05,28,05,05,7.30
2009,05,28,05,06,7.30
2009,05,28,05,07,7.30
2009,05,28,05,08,7.30
2009,05,28,05,09,7.40
2009,05,28,05,10,7.40
2009,05,28,05,11,7.40
2009,05,28,05,12,7.40
2009,05,28,05,13,7.40
2009,05,28,05,14,7.40
2009,05,28,05,15,7.40
2009,05,28,05,16,7.40
2009,05,28,05,17,7.40
2009,05,28,05,18,7.40
2009,05,28,05,19,7.40
2009,05,28,05,20,7.40
2009,05,28,05,21,7.40
2009,05,28,05,22,7.40
2009,05,28,05,23,7.40
2009,05,28,05,24,7.40
2009,05,28,05,25,7.30
2009,05,28,05,26,7.30
2009,05,28,05,27,7.30
2009,05,28,05,28,7.30
2009,05,28,05,29,7.30
2009,05,28,05,30,7.30
2009,05,28,05,31,7.30
2009,05,28,05,32,7.30
2009,05,28,05,33,7.30
2009,05,28,05,34,7.30
2009,05,28,05,35,7.30
2009,05,28,05,36,7.20
2009,05,28,05,37,7.20
2009,05,28,05,38,7.20
2009,05,28,05,39,7.20
2009,05,28,05,40,7.20
2009,05,28,05,41,7.20
2009,05,28,05,42,7.30
2009,05,28,05,43,7.30
2009,05,28,05,44,7.30
2009,05,28,05,45,7.30
2009,05,28,05,46,7.30
2009,05,28,05,47,7.40
2009,05,28,05,48,7.40
2009,05,28,05,49,7.40
2009,05,28,05,50,7.40
2009,05,28,05,51,7.50
2009,05,28,05,52,7.50
2009,05,28,05,53,7.50
2009,05,28,05,54,7.50
2009,05,28,05,55,7.60
2009,05,28,05,56,7.60
2009,05,28,05,57,7.70
2009,05,28,05,58,7.70
2009,05,28,05,59,7.70
2009,05,28,06,00,7.70
2009,05,28,06,01,7.70
2009,05,28,06,02,7.70
2009,05,28,06,03,7.80
2009,05,28,06,04,7.80
2009,05,28,06,05,7.80
2009,05,28,06,06,7.80
2009,05,28,06,07,7.80
2009,05,28,06,08,7.80
2009,05,28,06,09,7.80
2009,05,28,06,10,7.90
2009,05,28,06,11,7.90
2009,05,28,06,12,7.90
2009,05,28,06,13,7.90
2009,05,28,06,14,8.00
2009,05,28,06,15,8.00
2009,05,28,06,16,8.00
2009,05,28,06,17,8.00
2009,05,28,06,18,8.00
2009,05,28,06,19,8.10
2009,05,28,06,20,8.10
2009,05,28,06,21,8.10
2009,05,28,06,22,8.10
2009,05,28,06,23,8.10
2009,05,28,06,24,8.10
2009,05,28,06,25,8.10
2009,05,28,06,26,8.10
2009,05,28,06,27,8.10
2009,05,28,06,28,8.20
2009,05,28,06,29,8.20
2009,05,28,06,30,8.20
2009,05,28,06,31,8.20
2009,05,28,06,32,8.30
2009,05,28,06,33,8.40
2009,05,28,06,34,8.50
2009,05,28,06,35,8.50
2009,05,28,06,36,8.70
2009,05,28,06,37,8.70
2009,05,28,06,38,8.80
2009,05,28,06,39,8.90
2009,05,28,06,40,8.90
2009,05,28,06,41,9.00
2009,05,28,06,42,9.00
2009,05,28,06,43,9.00
2009,05,28,06,44,9.00
2009,05,28,06,45,8.90
2009,05,28,06,46,8.90
2009,05,28,06,47,8.90
2009,05,28,06,48,8.80
2009,05,28,06,49,8.80
2009,05,28,06,50,8.70
2009,05,28,06,51,8.70
2009,05,28,06,52,8.70
2009,05,28,06,53,8.70
2009,05,28,06,54,8.70
2009,05,28,06,55,8.80
2009,05,28,06,56,8.80
2009,05,28,06,57,8.90
2009,05,28,06,58,8.90
2009,05,28,06,59,9.00
2009,05,28,07,00,9.10
2009,05,28,07,01,9.20
2009,05,28,07,02,9.30
2009,05,28,07,03,9.40
2009,05,28,07,04,9.60
2009,05,28,07,05,9.70
2009,05,28,07,06,9.90
2009,05,28,07,07,10.00
2009,05,28,07,08,10.20
2009,05,28,07,09,10.30
2009,05,28,07,10,10.40
2009,05,28,07,11,10.60
2009,05,28,07,12,10.60
2009,05,28,07,13,10.70
2009,05,28,07,14,10.70
2009,05,28,07,15,10.80
2009,05,28,07,16,10.90
2009,05,28,07,17,10.90
2009,05,28,07,18,11.00
2009,05,28,07,19,11.10
2009,05,28,07,20,11.10
2009,05,28,07,21,11.20
2009,05,28,07,22,11.20
2009,05,28,07,23,11.30
2009,05,28,07,24,11.40
2009,05,28,07,25,11.40
2009,05,28,07,26,11.50
2009,05,28,07,27,11.60
2009,05,28,07,28,11.70
2009,05,28,07,29,11.80
2009,05,28,07,30,11.80
2009,05,28,07,31,11.90
2009,05,28,07,32,11.90
2009,05,28,07,33,12.00
2009,05,28,07,34,12.10
2009,05,28,07,35,12.20
2009,05,28,07,36,12.30
2009,05,28,07,37,12.30
2009,05,28,07,38,12.30
2009,05,28,07,39,12.30
2009,05,28,07,40,12.40
2009,05,28,07,41,12.40
2009,05,28,07,42,12.40
2009,05,28,07,43,12.50
2009,05,28,07,44,12.60
2009,05,28,07,45,12.60
2009,05,28,07,46,12.70
2009,05,28,07,47,12.80
2009,05,28,07,48,12.80
2009,05,28,07,49,12.90
2009,05,28,07,50,12.90
2009,05,28,07,51,13.00
2009,05,28,07,52,13.10
2009,05,28,07,53,13.10
2009,05,28,07,54,13.20
2009,05,28,07,55,13.20
2009,05,28,07,56,13.30
2009,05,28,07,57,13.40
2009,05,28,07,58,13.50
2009,05,28,07,59,13.60
2009,05,28,08,00,13.60
2009,05,28,08,01,13.60
2009,05,28,08,02,13.60
2009,05,28,08,03,13.70
2009,05,28,08,04,13.70
2009,05,28,08,05,13.80
2009,05,28,08,06,13.90
2009,05,28,08,07,13.90
2009,05,28,08,08,14.00
2009,05,28,08,09,14.00
2009,05,28,08,10,14.10
2009,05,28,08,11,14.20
2009,05,28,08,12,14.20
2009,05,28,08,13,14.30
2009,05,28,08,14,14.30
2009,05,28,08,15,14.30
2009,05,28,08,16,14.30
2009,05,28,08,17,14.40
2009,05,28,08,18,14.50
2009,05,28,08,19,14.50
2009,05,28,08,20,14.50
2009,05,28,08,21,14.60
2009,05,28,08,22,14.70
2009,05,28,08,23,14.80
2009,05,28,08,24,14.80
2009,05,28,08,25,14.90
2009,05,28,08,26,14.90
2009,05,28,08,27,15.00
2009,05,28,08,28,15.00
2009,05,28,08,29,15.00
2009,05,28,08,30,14.90
2009,05,28,08,31,14.90
2009,05,28,08,32,14.90
2009,05,28,08,33,14.90
2009,05,28,08,34,14.90
2009,05,28,08,35,15.00
2009,05,28,08,36,15.00
2009,05,28,08,37,15.00
2009,05,28,08,38,15.00
2009,05,28,08,39,15.10
2009,05,28,08,40,15.20
2009,05,28,08,41,15.30
2009,05,28,08,42,15.30
2009,05,28,08,43,15.30
2009,05,28,08,44,15.40
2009,05,28,08,45,15.40
2009,05,28,08,46,15.40
2009,05,28,08,47,15.50
2009,05,28,08,48,15.60
2009,05,28,08,49,15.60
2009,05,28,08,50,15.60
2009,05,28,08,51,15.60
2009,05,28,08,52,15.60
2009,05,28,08,53,15.60
2009,05,28,08,54,15.50
2009,05,28,08,55,15.50
2009,05,28,08,56,15.40
2009,05,28,08,57,15.40
2009,05,28,08,58,15.40
2009,05,28,08,59,15.50
2009,05,28,09,00,15.40
2009,05,28,09,01,15.30
2009,05,28,09,02,15.30
2009,05,28,09,03,15.40
2009,05,28,09,04,15.50
2009,05,28,09,05,15.50
2009,05,28,09,06,15.50
2009,05,28,09,07,15.50
2009,05,28,09,08,15.50
2009,05,28,09,09,15.60
2009,05,28,09,10,15.70
2009,05,28,09,11,15.80
2009,05,28,09,12,15.80
2009,05,28,09,13,15.90
2009,05,28,09,14,16.10
2009,05,28,09,15,16.10
2009,05,28,09,16,16.20
2009,05,28,09,17,16.30
2009,05,28,09,18,16.30
2009,05,28,09,19,16.30
2009,05,28,09,20,16.30
2009,05,28,09,21,16.30
2009,05,28,09,22,16.30
2009,05,28,09,23,16.20
2009,05,28,09,24,16.20
2009,05,28,09,25,16.30
2009,05,28,09,26,16.30
2009,05,28,09,27,16.30
2009,05,28,09,28,16.20
2009,05,28,09,29,16.20
2009,05,28,09,30,16.30
2009,05,28,09,31,16.30
2009,05,28,09,32,16.40
2009,05,28,09,33,16.40
2009,05,28,09,34,16.50
2009,05,28,09,35,16.60
2009,05,28,09,36,16.40
2009,05,28,09,37,16.40
2009,05,28,09,38,16.40
2009,05,28,09,39,16.50
2009,05,28,09,40,16.50
2009,05,28,09,41,16.40
2009,05,28,09,42,16.30
2009,05,28,09,43,16.40
2009,05,28,09,44,16.40
2009,05,28,09,45,16.20
2009,05,28,09,46,16.20
2009,05,28,09,47,16.20
2009,05,28,09,48,16.20
2009,05,28,09,49,16.30
2009,05,28,09,50,16.30
2009,05,28,09,51,16.30
2009,05,28,09,52,16.30
2009,05,28,09,53,16.10
2009,05,28,09,54,16.10
2009,05,28,09,55,16.10
2009,05,28,09,56,16.20
2009,05,28,09,57,16.20
2009,05,28,09,58,16.20
2009,05,28,09,59,16.30
2009,05,28,10,00,16.40
2009,05,28,10,01,16.50
2009,05,28,10,02,16.60
2009,05,28,10,03,16.70
2009,05,28,10,04,16.60
2009,05,28,10,05,16.70
2009,05,28,10,06,16.70
2009,05,28,10,07,16.70
2009,05,28,10,08,16.80
2009,05,28,10,09,16.80
2009,05,28,10,10,16.70
2009,05,28,10,11,16.50
2009,05,28,10,12,16.40
2009,05,28,10,13,16.40
2009,05,28,10,14,16.40
2009,05,28,10,15,16.40
2009,05,28,10,16,16.40
2009,05,28,10,17,16.40
2009,05,28,10,18,16.40
2009,05,28,10,19,16.40
2009,05,28,10,20,16.50
2009,05,28,10,21,16.70
2009,05,28,10,22,16.80
2009,05,28,10,23,16.90
2009,05,28,10,24,17.00
2009,05,28,10,25,17.00
2009,05,28,10,26,17.20
2009,05,28,10,27,17.30
2009,05,28,10,28,17.30
2009,05,28,10,29,17.30
2009,05,28,10,30,17.30
2009,05,28,10,31,17.30
2009,05,28,10,32,17.30
2009,05,28,10,33,17.30
2009,05,28,10,34,17.30
2009,05,28,10,35,17.30
2009,05,28,10,36,17.30
2009,05,28,10,37,17.40
2009,05,28,10,38,17.40
2009,05,28,10,39,17.40
2009,05,28,10,40,17.40
2009,05,28,10,41,17.40
2009,05,28,10,42,17.50
2009,05,28,10,43,17.60
2009,05,28,10,44,17.50
2009,05,28,10,45,17.40
2009,05,28,10,46,17.50
2009,05,28,10,47,17.50
2009,05,28,10,48,17.50
2009,05,28,10,49,17.50
2009,05,28,10,50,17.40
2009,05,28,10,51,17.30
2009,05,28,10,52,17.40
2009,05,28,10,53,17.40
2009,05,28,10,54,17.50
2009,05,28,10,55,17.60
2009,05,28,10,56,17.70
2009,05,28,10,57,17.70
2009,05,28,10,58,17.60
2009,05,28,10,59,17.60
2009,05,28,11,00,17.50
2009,05,28,11,01,17.60
2009,05,28,11,02,17.70
2009,05,28,11,03,17.70
2009,05,28,11,04,17.80
2009,05,28,11,05,17.90
2009,05,28,11,06,17.90
2009,05,28,11,07,17.90
2009,05,28,11,08,18.00
2009,05,28,11,09,18.10
2009,05,28,11,10,18.10
2009,05,28,11,11,18.10
2009,05,28,11,12,18.10
2009,05,28,11,13,18.10
2009,05,28,11,14,18.10
2009,05,28,11,15,18.10
2009,05,28,11,16,18.10
2009,05,28,11,17,18.20
2009,05,28,11,18,18.20
2009,05,28,11,19,18.10
2009,05,28,11,20,18.00
2009,05,28,11,21,17.90
2009,05,28,11,22,17.90
2009,05,28,11,23,17.90
2009,05,28,11,24,17.90
2009,05,28,11,25,17.90
2009,05,28,11,26,17.90
2009,05,28,11,27,17.90
2009,05,28,11,28,17.90
2009,05,28,11,29,17.90
2009,05,28,11,30,17.90
2009,05,28,11,31,17.90
2009,05,28,11,32,17.90
2009,05,28,11,33,18.00
2009,05,28,11,34,18.10
2009,05,28,11,35,18.20
2009,05,28,11,36,18.20
2009,05,28,11,37,18.30
2009,05,28,11,38,18.40
2009,05,28,11,39,18.40
2009,05,28,11,40,18.50
2009,05,28,11,41,18.50
2009,05,28,11,42,18.50
2009,05,28,11,43,18.50
2009,05,28,11,44,18.50
2009,05,28,11,45,18.50
2009,05,28,11,46,18.50
2009,05,28,11,47,18.60
2009,05,28,11,48,18.60
2009,05,28,11,49,18.70
2009,05,28,11,50,18.80
2009,05,28,11,51,18.90
2009,05,28,11,52,18.90
2009,05,28,11,53,18.90
2009,05,28,11,54,18.90
2009,05,28,11,55,18.60
2009,05,28,11,56,18.60
2009,05,28,11,57,18.60
2009,05,28,11,58,18.60
2009,05,28,11,59,18.60
2009,05,28,12,00,18.60
2009,05,28,12,01,18.70
2009,05,28,12,02,18.70
2009,05,28,12,03,18.70
2009,05,28,12,04,18.70
2009,05,28,12,05,18.60
2009,05,28,12,06,18.60
2009,05,28,12,07,18.70
2009,05,28,12,08,18.70
2009,05,28,12,09,18.80
2009,05,28,12,10,18.80
2009,05,28,12,11,18.80
2009,05,28,12,12,18.90
2009,05,28,12,13,18.90
2009,05,28,12,14,18.90
2009,05,28,12,15,18.90
2009,05,28,12,16,18.80
2009,05,28,12,17,18.80
2009,05,28,12,18,18.70
2009,05,28,12,19,18.70
2009,05,28,12,20,18.70
2009,05,28,12,21,18.70
2009,05,28,12,22,18.80
2009,05,28,12,23,18.80
2009,05,28,12,24,18.90
2009,05,28,12,25,18.90
2009,05,28,12,26,18.90
2009,05,28,12,27,19.00
2009,05,28,12,28,19.10
2009,05,28,12,29,19.10
2009,05,28,12,30,19.10
2009,05,28,12,31,19.20
2009,05,28,12,32,19.20
2009,05,28,12,33,19.30
2009,05,28,12,34,19.30
2009,05,28,12,35,19.40
2009,05,28,12,36,19.50
2009,05,28,12,37,19.60
2009,05,28,12,38,19.70
2009,05,28,12,39,19.60
2009,05,28,12,40,19.70
2009,05,28,12,41,19.80
2009,05,28,12,42,20.00
2009,05,28,12,43,20.10
2009,05,28,12,44,20.00
2009,05,28,12,45,20.00
2009,05,28,12,46,20.10
2009,05,28,12,47,20.00
2009,05,28,12,48,19.90
2009,05,28,12,49,19.70
2009,05,28,12,50,19.60
2009,05,28,12,51,19.60
2009,05,28,12,52,19.60
2009,05,28,12,53,19.70
2009,05,28,12,54,19.70
2009,05,28,12,55,19.70
2009,05,28,12,56,19.70
2009,05,28,12,57,19.70
2009,05,28,12,58,19.70
2009,05,28,12,59,19.80
2009,05,28,13,00,19.70
2009,05,28,13,01,19.60
2009,05,28,13,02,19.60
2009,05,28,13,03,19.70
2009,05,28,13,04,19.80
2009,05,28,13,05,19.80
2009,05,28,13,06,19.80
2009,05,28,13,07,19.90
2009,05,28,13,08,19.80
2009,05,28,13,09,19.80
2009,05,28,13,10,19.80
2009,05,28,13,11,19.80
2009,05,28,13,12,19.70
2009,05,28,13,13,19.80
2009,05,28,13,14,19.90
2009,05,28,13,15,19.80
2009,05,28,13,16,19.70
2009,05,28,13,17,19.60
2009,05,28,13,18,19.70
2009,05,28,13,19,19.60
2009,05,28,13,20,19.60
2009,05,28,13,21,19.70
2009,05,28,13,22,19.70
2009,05,28,13,23,19.80
2009,05,28,13,24,19.80
2009,05,28,13,25,19.80
2009,05,28,13,26,19.90
2009,05,28,13,27,19.90
2009,05,28,13,28,20.00
2009,05,28,13,29,20.10
2009,05,28,13,30,20.10
2009,05,28,13,31,20.20
2009,05,28,13,32,20.20
2009,05,28,13,33,20.20
2009,05,28,13,34,20.30
2009,05,28,13,35,20.40
2009,05,28,13,36,20.50
2009,05,28,13,37,20.50
2009,05,28,13,38,20.50
2009,05,28,13,39,20.50
2009,05,28,13,40,20.50
2009,05,28,13,41,20.50
2009,05,28,13,42,20.50
2009,05,28,13,43,20.60
2009,05,28,13,44,20.60
2009,05,28,13,45,20.80
2009,05,28,13,46,20.90
2009,05,28,13,47,20.90
2009,05,28,13,48,21.00
2009,05,28,13,49,20.90
2009,05,28,13,50,20.90
2009,05,28,13,51,20.90
2009,05,28,13,52,20.90
2009,05,28,13,53,20.90
2009,05,28,13,54,21.00
2009,05,28,13,55,21.00
2009,05,28,13,56,21.00
2009,05,28,13,57,20.90
2009,05,28,13,58,20.90
2009,05,28,13,59,20.80
2009,05,28,14,00,20.70
2009,05,28,14,01,20.70
2009,05,28,14,02,20.80
2009,05,28,14,03,20.80
2009,05,28,14,04,20.90
2009,05,28,14,05,20.90
2009,05,28,14,06,21.00
2009,05,28,14,07,21.00
2009,05,28,14,08,21.10
2009,05,28,14,09,21.20
2009,05,28,14,10,21.30
2009,05,28,14,11,21.20
2009,05,28,14,12,20.90
2009,05,28,14,13,20.80
2009,05,28,14,14,20.70
2009,05,28,14,15,20.70
2009,05,28,14,16,20.60
2009,05,28,14,17,20.60
2009,05,28,14,18,20.70
2009,05,28,14,19,20.80
2009,05,28,14,20,20.80
2009,05,28,14,21,20.90
2009,05,28,14,22,20.90
2009,05,28,14,23,20.90
2009,05,28,14,24,20.90
2009,05,28,14,25,20.80
2009,05,28,14,26,20.80
2009,05,28,14,27,20.80
2009,05,28,14,28,20.90
2009,05,28,14,29,21.00
2009,05,28,14,30,21.10
2009,05,28,14,31,21.10
2009,05,28,14,32,21.10
2009,05,28,14,33,21.20
2009,05,28,14,34,21.20
2009,05,28,14,35,21.20
2009,05,28,14,36,21.20
2009,05,28,14,37,21.20
2009,05,28,14,38,21.20
2009,05,28,14,39,21.20
2009,05,28,14,40,21.10
2009,05,28,14,41,20.90
2009,05,28,14,42,20.90
2009,05,28,14,43,20.90
2009,05,28,14,44,21.00
2009,05,28,14,45,21.10
2009,05,28,14,46,21.20
2009,05,28,14,47,21.30
2009,05,28,14,48,21.30
2009,05,28,14,49,21.30
2009,05,28,14,50,21.30
2009,05,28,14,51,21.30
2009,05,28,14,52,21.20
2009,05,28,14,53,21.20
2009,05,28,14,54,21.20
2009,05,28,14,55,21.30
2009,05,28,14,56,21.40
2009,05,28,14,57,21.60
2009,05,28,14,58,21.60
2009,05,28,14,59,21.60
2009,05,28,15,00,21.70
2009,05,28,15,01,21.70
2009,05,28,15,02,21.80
2009,05,28,15,03,21.90
2009,05,28,15,04,22.00
2009,05,28,15,05,22.00
2009,05,28,15,06,22.10
2009,05,28,15,07,22.10
2009,05,28,15,08,22.10
2009,05,28,15,09,22.10
2009,05,28,15,10,22.10
2009,05,28,15,11,22.20
2009,05,28,15,12,22.20
2009,05,28,15,13,22.30
2009,05,28,15,14,22.30
2009,05,28,15,15,22.40
2009,05,28,15,16,22.20
2009,05,28,15,17,21.80
2009,05,28,15,18,21.40
2009,05,28,15,19,21.10
2009,05,28,15,20,20.80
2009,05,28,15,21,20.60
2009,05,28,15,22,20.40
2009,05,28,15,23,20.30
2009,05,28,15,24,20.20
2009,05,28,15,25,20.10
2009,05,28,15,26,19.90
2009,05,28,15,27,19.90
2009,05,28,15,28,19.80
2009,05,28,15,29,19.80
2009,05,28,15,30,19.80
2009,05,28,15,31,19.90
2009,05,28,15,32,19.90
2009,05,28,15,33,20.00
2009,05,28,15,34,20.20
2009,05,28,15,35,20.20
2009,05,28,15,36,20.20
2009,05,28,15,37,20.30
2009,05,28,15,38,20.50
2009,05,28,15,39,20.60
2009,05,28,15,40,20.80
2009,05,28,15,41,20.90
2009,05,28,15,42,20.90
2009,05,28,15,43,21.00
2009,05,28,15,44,21.00
2009,05,28,15,45,21.00
2009,05,28,15,46,21.00
2009,05,28,15,47,21.00
2009,05,28,15,48,21.10
2009,05,28,15,49,21.20
2009,05,28,15,50,21.20
2009,05,28,15,51,21.30
2009,05,28,15,52,21.40
2009,05,28,15,53,21.40
2009,05,28,15,54,21.30
2009,05,28,15,55,21.30
2009,05,28,15,56,21.20
2009,05,28,15,57,21.20
2009,05,28,15,58,21.20
2009,05,28,15,59,21.30
2009,05,28,16,00,21.30
2009,05,28,16,01,21.40
2009,05,28,16,02,21.40
2009,05,28,16,03,21.60
2009,05,28,16,04,21.60
2009,05,28,16,05,21.70
2009,05,28,16,06,21.70
2009,05,28,16,07,21.60
2009,05,28,16,08,21.40
2009,05,28,16,09,21.20
2009,05,28,16,10,21.00
2009,05,28,16,11,20.90
2009,05,28,16,12,20.90
2009,05,28,16,13,20.80
2009,05,28,16,14,20.80
2009,05,28,16,15,20.80
2009,05,28,16,16,20.80
2009,05,28,16,17,20.90
2009,05,28,16,18,21.00
2009,05,28,16,19,21.00
2009,05,28,16,20,21.00
2009,05,28,16,21,21.10
2009,05,28,16,22,21.10
2009,05,28,16,23,21.20
2009,05,28,16,24,21.30
2009,05,28,16,25,21.40
2009,05,28,16,26,21.60
2009,05,28,16,27,21.60
2009,05,28,16,28,21.70
2009,05,28,16,29,21.80
2009,05,28,16,30,21.80
2009,05,28,16,31,21.80
2009,05,28,16,32,21.80
2009,05,28,16,33,21.70
2009,05,28,16,34,21.60
2009,05,28,16,35,21.50
2009,05,28,16,36,21.40
2009,05,28,16,37,21.40
2009,05,28,16,38,21.30
2009,05,28,16,39,21.30
2009,05,28,16,40,21.10
2009,05,28,16,41,21.00
2009,05,28,16,42,21.00
2009,05,28,16,43,21.00
2009,05,28,16,44,20.90
2009,05,28,16,45,20.80
2009,05,28,16,46,20.80
2009,05,28,16,47,20.80
2009,05,28,16,48,20.90
2009,05,28,16,49,21.00
2009,05,28,16,50,21.10
2009,05,28,16,51,21.20
2009,05,28,16,52,21.10
2009,05,28,16,53,20.90
2009,05,28,16,54,20.80
2009,05,28,16,55,20.70
2009,05,28,16,56,20.70
2009,05,28,16,57,20.70
2009,05,28,16,58,20.80
2009,05,28,16,59,20.90
2009,05,28,17,00,21.00
2009,05,28,17,01,21.10
2009,05,28,17,02,21.20
2009,05,28,17,03,21.30
2009,05,28,17,04,21.20
2009,05,28,17,05,21.20
2009,05,28,17,06,21.30
2009,05,28,17,07,21.30
2009,05,28,17,08,21.30
2009,05,28,17,09,21.30
2009,05,28,17,10,21.30
2009,05,28,17,11,21.40
2009,05,28,17,12,21.50
2009,05,28,17,13,21.60
2009,05,28,17,14,21.70
2009,05,28,17,15,21.80
2009,05,28,17,16,21.90
2009,05,28,17,17,21.90
2009,05,28,17,18,21.90
2009,05,28,17,19,21.90
2009,05,28,17,20,21.80
2009,05,28,17,21,21.80
2009,05,28,17,22,21.80
2009,05,28,17,23,21.90
2009,05,28,17,24,22.00
2009,05,28,17,25,22.10
2009,05,28,17,26,22.20
2009,05,28,17,27,22.30
2009,05,28,17,28,22.40
2009,05,28,17,29,22.50
2009,05,28,17,30,22.60
2009,05,28,17,31,22.70
2009,05,28,17,32,22.70
2009,05,28,17,33,22.80
2009,05,28,17,34,22.80
2009,05,28,17,35,22.80